Stations météo

Publicité
Berus, Allemagne (10704): Température de l'air & dewpoint: 18.09.2020 10:00:00 - 24.09.2020 10:00:00 (CEST)Berus, Allemagne (10704): Température de l'air 5cm & Température de l'air -5cm: 18.09.2020 10:00:00 - 24.09.2020 10:00:00 (CEST)Berus, Allemagne (10704): Température de l'air -20cm & Température de l'air -100cm: 18.09.2020 10:00:00 - 24.09.2020 10:00:00 (CEST)Berus, Allemagne (10704): Vitesse du vent & gusts: 18.09.2020 10:00:00 - 24.09.2020 10:00:00 (CEST)Berus, Allemagne (10704): Direction du vent: 18.09.2020 10:00:00 - 24.09.2020 10:00:00 (CEST)Berus, Allemagne (10704): reduced air pressure: 18.09.2020 10:00:00 - 24.09.2020 10:00:00 (CEST)Berus, Allemagne (10704): visibility: 18.09.2020 10:00:00 - 24.09.2020 10:00:00 (CEST)Berus, Allemagne (10704): Ensoleillement: 18.09.2020 10:00:00 - 24.09.2020 10:00:00 (CEST)Berus, Allemagne (10704): Quantités de précipitations: 18.09.2020 10:00:00 - 24.09.2020 10:00:00 (CEST)
Date & Time tt [°C] td [°C] tt 5cm [°C] tt -5cm [°C] tt -20cm [°C] tt -100cm [°C] ff [km/h] ff [knt] fx [km/h] fx [knt] dd ppp [hPa] vv [km] sd [min] rr [mm]
24.09.2020 10:00:00 11,8 9,1 13,8 14,9 18,2 19,6 16 9 24 13 SW 1008,8 60 60 0,0
24.09.2020 09:00:00 10,4 9,0 11,2 13,7 18,5 19,6 13 7 24 13 SW 1009,0 58 45 0,0
24.09.2020 08:00:00 10,0 9,0 9,2 14,1 18,8 19,6 21 11 31 17 WSW 1008,3 57 0 0,0
24.09.2020 07:00:00 10,9 9,7 10,0 15,0 19,1 19,6 14 8 45 25 WSW 1007,6 58 0 0,1
24.09.2020 06:00:00 13,2 11,3 12,7 16,2 19,2 19,6 22 12 44 24 WSW 1006,4 54 0 0,1
24.09.2020 05:00:00 14,5 14,1 14,4 16,6 19,4 19,6 19 11 34 19 SW 1005,2 26 0 2,5
24.09.2020 04:00:00 14,7 14,4 14,7 16,8 19,5 19,6 24 13 45 24 SW 1004,5 9 0 2,5
24.09.2020 03:00:00 16,7 12,5 16,1 16,8 19,7 19,6 27 14 42 23 SW 1003,7 52 0 0,0
24.09.2020 02:00:00 16,4 12,5 15,8 16,9 19,9 19,6 29 16 47 25 SSW 1003,5 64 0 0,0
24.09.2020 01:00:00 15,9 12,7 15,1 17,1 20,1 19,6 16 9 32 17 SSW 1003,7 56 0 0,0
24.09.2020 00:00:00 15,9 12,6 14,9 17,3 20,4 19,6 18 10 29 16 S 1004,3 49 0 0,0
23.09.2020 23:00:00 16,3 12,9 15,5 17,7 20,6 19,6 19 10 28 15 SSW 1005,0 49 0 0,0
23.09.2020 22:00:00 16,2 13,2 15,3 18,1 20,9 19,6 16 9 27 15 SSW 1005,4 55 0 0,0
23.09.2020 21:00:00 16,7 13,5 15,7 18,8 21,2 19,6 17 9 24 13 S 1005,3 49 0 0,0
23.09.2020 20:00:00 17,0 13,8 16,3 19,7 21,3 19,6 12 6 20 11 S 1005,6 48 0 0,0
23.09.2020 19:00:00 17,7 13,3 17,1 20,8 21,4 19,6 14 8 23 12 S 1005,7 58 3 0,0
23.09.2020 18:00:00 17,8 13,7 17,7 22,2 21,4 19,6 16 8 27 15 SSW 1006,1 57 25 0,0
23.09.2020 17:00:00 19,0 15,6 21,2 23,3 21,2 19,6 11 6 16 9 SSW 1006,4 50 20 0,0
23.09.2020 16:00:00 18,6 15,4 19,9 23,9 21,0 19,6 8 4 15 8 SSW 1007,1 45 46 0,1
23.09.2020 15:00:00 15,1 13,3 15,7 23,7 20,8 19,6 14 7 44 24 WSW 1008,2 11 9 3,8
23.09.2020 14:00:00 20,7 11,4 24,0 23,3 20,5 19,6 19 10 39 21 SW 1007,5 54 13 0,0
23.09.2020 13:00:00 19,5 11,9 21,3 22,9 20,2 19,6 16 9 33 18 SW 1008,1 44 21 0,0
23.09.2020 12:00:00 19,6 12,2 23,3 21,5 20,1 19,6 23 13 34 18 SW 1008,3 47 54 0,0
23.09.2020 11:00:00 18,7 13,2 22,4 19,3 20,1 19,6 14 8 29 15 SW 1008,7 30 7 0,0
23.09.2020 10:00:00 15,6 12,5 16,5 18,6 20,2 19,6 18 10 38 21 SW 1009,2 25 1 0,0
23.09.2020 09:00:00 14,8 12,0 15,6 17,8 20,4 19,6 23 12 34 18 WSW 1009,0 31 2 0,0
23.09.2020 08:00:00 13,6 11,0 12,8 17,8 20,6 19,6 17 9 24 13 SW 1008,9 30 0 0,0
23.09.2020 07:00:00 13,9 9,6 13,0 18,0 20,9 19,6 16 9 24 13 SW 1008,4 45 0 0,0
23.09.2020 06:00:00 14,2 6,0 12,5 18,6 21,1 19,6 14 7 20 11 SW 1008,6 60 0 0,0
23.09.2020 05:00:00 15,6 5,6 14,0 19,2 21,3 19,6 13 7 20 11 WSW 1008,2 55 0 0,0
23.09.2020 04:00:00 16,8 5,8 15,8 19,7 21,5 19,6 11 6 19 10 WSW 1008,2 70 0 0,0
23.09.2020 03:00:00 17,9 5,7 16,9 20,1 21,7 19,6 12 7 21 11 WSW 1008,1 65 0 0,0
23.09.2020 02:00:00 17,4 7,1 15,6 20,6 21,9 19,6 12 7 26 14 WSW 1008,3 36 0 0,0
23.09.2020 01:00:00 19,0 5,8 18,3 20,9 22,1 19,6 11 6 21 11 WSW 1008,3 56 0 0,0
23.09.2020 00:00:00 19,6 5,8 18,6 21,1 22,3 19,6 14 8 26 14 W 1008,1 60 0 0,0
22.09.2020 23:00:00 19,3 6,5 17,4 21,8 22,5 19,6 13 7 18 10 W 1008,1 56 0 0,0
22.09.2020 22:00:00 20,7 7,3 18,6 22,6 22,6 19,6 7 4 9 5 W 1007,9 51 0 0,0
22.09.2020 21:00:00 20,9 7,3 18,7 23,2 22,8 19,6 6 3 10 6 SW 1007,9 50 0 0,0
22.09.2020 20:00:00 21,5 7,1 19,6 24,3 22,8 19,6 9 5 14 8 W 1007,7 64 0 0,0
22.09.2020 19:00:00 23,0 6,8 21,3 25,7 22,6 19,6 9 5 21 12 WSW 1007,5 57 45 0,0
22.09.2020 18:00:00 25,0 6,4 27,1 27,1 22,3 19,6 13 7 29 15 WSW 1007,5 52 60 0,0
22.09.2020 17:00:00 26,3 7,8 30,4 27,7 21,8 19,6 12 6 29 15 WSW 1008,0 48 60 0,0
22.09.2020 16:00:00 26,4 8,3 31,0 27,7 21,3 19,6 19 10 34 18 SW 1008,8 44 60 0,0
22.09.2020 15:00:00 26,6 8,8 31,0 27,2 20,7 19,6 14 8 26 14 SW 1009,2 35 60 0,0
22.09.2020 14:00:00 23,8 12,4 30,6 25,9 20,2 19,6 8 5 19 10 SSW 1010,1 48 60 0,0
22.09.2020 13:00:00 23,1 13,1 28,5 24,0 19,7 19,6 11 6 21 11 SSW 1010,7 39 60 0,0
22.09.2020 12:00:00 20,5 12,4 26,4 21,7 19,5 19,6 8 4 11 6 SSW 1011,5 57 60 0,0
22.09.2020 11:00:00 17,4 11,3 21,4 19,4 19,4 19,6 8 4 16 8 SSW 1012,4 33 60 0,0
22.09.2020 10:00:00 16,1 10,7 19,3 17,5 19,5 19,6 6 3 9 5 S 1012,7 44 60 0,0
22.09.2020 09:00:00 13,8 9,6 15,4 16,2 19,7 19,7 7 4 11 6 SSE 1013,1 38 54 0,0
22.09.2020 08:00:00 12,4 9,0 10,9 16,1 19,9 19,7 7 4 10 5 ESE 1013,2 34 4 0,0
22.09.2020 07:00:00 12,3 8,2 8,9 16,5 20,2 19,7 6 3 8 4 E 1013,1 27 0 0,0
22.09.2020 06:00:00 13,9 8,9 9,1 16,8 20,5 19,7 5 3 6 4 E 1012,9 29 0 0,0
22.09.2020 05:00:00 14,0 8,1 9,3 17,3 20,7 19,7 5 3 8 4 ENE 1013,2 38 0 0,0
22.09.2020 04:00:00 14,7 8,4 10,5 17,7 21,0 19,7 6 3 8 5 NNE 1013,4 28 0 0,0
22.09.2020 03:00:00 16,0 8,2 10,6 18,2 21,3 19,7 4 2 7 4 E 1013,2 45 0 0,0
22.09.2020 02:00:00 16,6 8,2 11,1 18,8 21,6 19,7 5 3 7 4 E 1013,5 52 0 0,0
22.09.2020 01:00:00 17,3 8,2 11,5 19,3 21,9 19,7 6 3 9 5 NE 1013,7 55 0 0,0
22.09.2020 00:00:00 17,1 7,9 12,3 20,0 22,3 19,7 5 3 7 4 NNE 1013,9 54 0 0,0
21.09.2020 23:00:00 18,5 7,2 11,3 20,8 22,6 19,7 5 3 7 4 S 1014,0 53 0 0,0
21.09.2020 22:00:00 19,2 6,8 12,4 21,7 22,8 19,7 6 3 7 4 SSW 1014,0 63 0 0,0
21.09.2020 21:00:00 19,9 6,8 13,0 22,9 23,0 19,7 5 3 7 4 S 1013,7 60 0 0,0
21.09.2020 20:00:00 20,3 6,2 14,7 24,4 23,0 19,7 5 3 6 3 SW 1013,4 36 14 0,0
21.09.2020 19:00:00 23,0 5,5 19,8 26,1 22,8 19,7 3 2 9 5 SSE 1013,0 60 60 0,0
21.09.2020 18:00:00 24,1 5,7 28,0 27,5 22,4 19,7 6 3 11 6 ENE 1013,1 53 60 0,0
21.09.2020 17:00:00 24,0 5,9 31,3 28,1 22,0 19,7 6 4 11 6 NE 1013,4 69 60 0,0
21.09.2020 16:00:00 24,7 6,9 30,2 28,0 21,4 19,7 9 5 16 8 E 1013,5 58 60 0,0
21.09.2020 15:00:00 24,2 7,1 29,9 27,4 20,8 19,7 7 4 18 10 ESE 1013,9 66 60 0,0
21.09.2020 14:00:00 23,1 7,7 30,7 26,0 20,2 19,7 8 5 16 9 NE 1014,4 56 60 0,0
21.09.2020 13:00:00 21,9 7,5 30,5 24,1 19,8 19,7 6 3 13 7 NE 1014,9 54 60 0,0
21.09.2020 12:00:00 20,1 7,7 26,6 21,8 19,5 19,7 5 3 9 5 E 1015,4 37 60 0,0
21.09.2020 11:00:00 17,4 6,5 24,4 19,4 19,4 19,7 6 4 13 7 ENE 1016,1 47 60 0,0
21.09.2020 10:00:00 14,8 5,7 21,2 17,4 19,5 19,7 10 5 13 7 NE 1016,3 75 60 0,0
21.09.2020 09:00:00 13,8 6,2 17,0 16,2 19,8 19,7 10 6 15 8 NNE 1016,4 49 60 0,0
21.09.2020 08:00:00 12,8 6,1 10,3 16,2 20,0 19,7 11 6 16 9 NNE 1016,1 42 8 0,0
21.09.2020 07:00:00 12,4 5,9 10,1 16,5 20,3 19,7 13 7 17 9 NNE 1015,8 58 0 0,0
21.09.2020 06:00:00 13,1 6,2 10,3 16,9 20,5 19,7 13 7 18 10 NNE 1015,8 51 0 0,0
21.09.2020 05:00:00 13,5 6,3 11,2 17,3 20,8 19,7 16 8 18 10 NNE 1015,6 53 0 0,0
21.09.2020 04:00:00 14,9 6,6 12,0 17,8 21,1 19,7 14 7 17 9 NNE 1015,5 67 0 0,0
21.09.2020 03:00:00 15,2 6,7 12,7 18,2 21,4 19,7 15 8 18 10 NNE 1015,8 63 0 0,0
21.09.2020 02:00:00 15,4 6,6 12,5 18,7 21,6 19,7 12 7 16 9 NNE 1015,8 73 0 0,0
21.09.2020 01:00:00 15,6 6,7 12,9 19,2 21,9 19,7 13 7 18 10 NNE 1015,9 60 0 0,0
21.09.2020 00:00:00 16,4 6,4 13,4 19,9 22,2 19,7 12 7 18 10 NNE 1015,7 63 0 0,0
20.09.2020 23:00:00 17,2 5,9 14,5 20,6 22,5 19,7 14 8 19 11 NNE 1015,7 55 0 0,0
20.09.2020 22:00:00 17,4 5,5 14,4 21,5 22,8 19,7 13 7 18 10 NNE 1015,6 61 0 0,0
20.09.2020 21:00:00 19,5 4,9 16,2 22,7 22,9 19,7 10 5 20 11 ENE 1015,1 68 0 0,0
20.09.2020 20:00:00 20,6 5,0 17,7 24,1 22,9 19,7 10 5 18 10 ENE 1014,4 65 14 0,0
20.09.2020 19:00:00 21,9 6,4 20,4 25,6 22,8 19,7 7 4 11 6 NE 1013,9 75 60 0,0
20.09.2020 18:00:00 23,3 5,8 28,0 26,6 22,5 19,7 7 4 13 7 N 1013,6 73 60 0,0
20.09.2020 17:00:00 24,0 6,3 29,9 26,7 22,2 19,7 4 2 17 9 NNE 1013,5 54 60 0,0
20.09.2020 16:00:00 22,7 6,0 30,2 26,4 21,8 19,7 8 5 17 9 NNE 1014,1 75 18 0,0
20.09.2020 15:00:00 22,7 6,3 30,1 26,6 21,3 19,7 10 5 26 14 NNE 1014,3 47 56 0,0
20.09.2020 14:00:00 22,2 5,7 28,4 25,6 20,8 19,7 15 8 30 16 ENE 1014,6 66 57 0,0
20.09.2020 13:00:00 21,4 6,4 28,8 23,7 20,5 19,7 18 10 26 14 NE 1014,9 73 60 0,0
20.09.2020 12:00:00 19,0 6,9 23,0 22,1 20,3 19,7 12 7 20 11 NE 1015,6 58 56 0,0
20.09.2020 11:00:00 17,6 6,5 22,5 20,3 20,3 19,7 11 6 20 11 NE 1016,1 58 60 0,0
20.09.2020 10:00:00 16,0 5,8 19,7 18,6 20,4 19,7 14 8 22 12 NE 1015,9 66 59 0,0
20.09.2020 09:00:00 15,0 6,4 17,7 17,6 20,6 19,7 16 8 19 10 NNE 1015,6 51 37 0,0
20.09.2020 08:00:00 13,5 6,5 12,2 17,6 20,8 19,7 14 8 18 10 NNE 1015,6 50 0 0,0
20.09.2020 07:00:00 13,7 6,4 12,1 18,0 21,1 19,7 16 9 21 11 NE 1015,4 64 0 0,0
20.09.2020 06:00:00 14,5 6,5 12,4 18,3 21,3 19,7 13 7 17 9 NNE 1015,3 59 0 0,0
20.09.2020 05:00:00 14,9 6,5 12,8 18,8 21,6 19,7 14 7 16 9 NNE 1015,7 48 0 0,0
20.09.2020 04:00:00 15,5 6,3 13,1 19,2 21,9 19,7 13 7 16 9 NNE 1015,8 68 0 0,0
20.09.2020 03:00:00 16,0 6,2 13,6 19,8 22,1 19,7 13 7 17 9 NNE 1015,9 69 0 0,0
20.09.2020 02:00:00 17,0 6,2 15,2 20,4 22,4 19,7 15 8 22 12 NE 1015,8 62 0 0,0
20.09.2020 01:00:00 17,3 6,5 16,0 20,9 22,6 19,7 14 8 21 11 NE 1015,7 57 0 0,0
20.09.2020 00:00:00 17,6 7,7 15,8 21,6 22,9 19,7 12 7 16 9 NE 1016,1 65 0 0,0
19.09.2020 23:00:00 18,6 8,3 15,6 22,5 23,1 19,7 7 4 16 8 NE 1016,2 66 0 0,0
19.09.2020 22:00:00 20,1 8,5 18,8 23,4 23,2 19,7 12 7 23 13 NE 1015,7 54 0 0,0
19.09.2020 21:00:00 21,4 10,3 20,6 24,2 23,3 19,7 14 7 21 11 NE 1014,9 53 0 0,0
19.09.2020 20:00:00 22,2 11,9 21,0 25,3 23,3 19,7 7 4 17 9 E 1014,7 52 0 0,0
19.09.2020 19:00:00 24,1 11,9 23,9 26,4 23,2 19,7 8 4 11 6 ENE 1014,2 56 0 0,0
19.09.2020 18:00:00 24,1 12,2 24,4 27,6 22,8 19,7 3 2 19 10 NNE 1014,5 64 9 0,0
19.09.2020 17:00:00 25,4 11,2 31,6 28,6 22,4 19,7 14 7 23 13 NE 1014,7 55 60 0,0
19.09.2020 16:00:00 25,7 11,2 34,1 28,0 21,8 19,7 8 4 16 9 N 1015,5 48 37 0,0
19.09.2020 15:00:00 25,2 11,0 32,2 27,3 21,3 19,7 6 3 13 7 NNW 1016,4 66 44 0,0
19.09.2020 14:00:00 22,7 9,5 30,8 26,5 20,7 19,7 6 3 14 8 NNE 1017,3 62 59 0,0
19.09.2020 13:00:00 21,0 8,5 29,6 24,5 20,3 19,7 5 3 14 8 ENE 1017,9 52 60 0,0
19.09.2020 12:00:00 19,4 7,7 25,5 22,2 20,1 19,7 6 3 19 10 E 1018,4 46 60 0,0
19.09.2020 11:00:00 18,1 7,4 22,4 20,0 20,0 19,7 10 5 21 11 ENE 1018,7 71 60 0,0
19.09.2020 10:00:00 15,6 5,7 20,0 18,2 20,1 19,8 9 5 26 14 ENE 1019,1 74 60 0,0
19.09.2020 09:00:00 13,5 5,9 15,8 17,1 20,3 19,8 19 10 25 13 NE 1018,8 66 60 0,0
19.09.2020 08:00:00 12,3 5,9 11,5 17,1 20,5 19,8 17 9 25 14 NE 1019,0 75 5 0,0
19.09.2020 07:00:00 12,4 6,3 11,3 17,4 20,8 19,8 20 11 28 15 NE 1018,3 58 0 0,0
19.09.2020 06:00:00 12,7 7,3 11,6 17,8 21,0 19,8 19 11 24 13 NE 1018,1 69 0 0,0
19.09.2020 05:00:00 13,1 7,9 12,0 18,2 21,3 19,8 21 11 26 14 NE 1018,2 56 0 0,0
19.09.2020 04:00:00 13,6 8,3 12,5 18,6 21,6 19,8 21 11 25 14 NE 1018,8 70 0 0,0
19.09.2020 03:00:00 14,2 8,3 13,1 19,1 21,8 19,8 19 10 24 13 NE 1019,1 54 0 0,0
19.09.2020 02:00:00 14,9 8,4 13,7 19,6 22,1 19,8 18 10 26 14 NE 1019,3 60 0 0,0
19.09.2020 01:00:00 15,8 8,8 14,5 20,2 22,4 19,8 21 12 26 14 NE 1019,4 68 0 0,0
19.09.2020 00:00:00 16,7 9,4 14,9 20,9 22,6 19,8 16 9 29 16 NE 1019,6 63 0 0,0
18.09.2020 23:00:00 18,1 9,5 16,5 21,6 22,8 19,8 18 10 35 19 NE 1019,4 63 0 0,0
18.09.2020 22:00:00 19,1 9,9 17,7 22,4 23,0 19,8 19 11 32 17 ENE 1019,3 57 0 0,0
18.09.2020 21:00:00 20,0 10,2 18,4 23,3 23,2 19,8 21 11 32 17 ENE 1019,2 52 0 0,0
18.09.2020 20:00:00 21,0 10,3 19,7 24,5 23,2 19,7 20 11 31 17 ENE 1019,1 72 17 0,0
18.09.2020 19:00:00 22,5 10,5 22,0 25,9 23,0 19,7 18 10 32 18 E 1018,7 64 60 0,0
18.09.2020 18:00:00 23,4 10,7 26,0 27,1 22,7 19,7 16 9 30 16 E 1018,8 46 60 0,0
18.09.2020 17:00:00 24,4 10,7 29,1 27,6 22,2 19,7 16 8 33 18 E 1018,8 55 60 0,0
18.09.2020 16:00:00 24,3 10,6 29,4 27,5 21,7 19,7 17 9 32 17 E 1019,0 52 60 0,0
18.09.2020 15:00:00 24,2 11,1 29,5 26,8 21,2 19,7 15 8 39 21 E 1019,4 75 60 0,0
18.09.2020 14:00:00 22,2 10,5 29,2 25,5 20,7 19,7 22 12 35 19 ENE 1020,1 41 60 0,0
18.09.2020 13:00:00 20,2 9,7 27,2 23,6 20,3 19,7 18 10 34 18 E 1020,8 52 60 0,0
18.09.2020 12:00:00 18,7 9,4 24,0 21,4 20,1 19,7 22 12 41 22 ENE 1021,3 55 60 0,0
18.09.2020 11:00:00 17,4 9,0 21,5 19,4 20,1 19,7 23 12 41 22 ENE 1021,7 49 60 0,0
18.09.2020 10:00:00 14,4 7,6 17,9 17,7 20,2 19,7 27 14 37 20 NE 1021,9 48 60 0,0

tt = Température de l'air
td = dewpoint
tt 5cm = Température de l'air 5cm
tt -5cm = Température de l'air -5cm
tt -20cm = Température de l'air -20cm
tt -100cm = Température de l'air -100cm
ff = Vitesse du vent
fx = gusts
dd = Direction du vent
ppp = reduced air pressure
vv = visibility
sd = Ensoleillement
rr = Quantités de précipitations

stations d'obs. à proximité